Location: Village de las Huertas
(35.3014°N, 106.4095°W)
Time: 09:05:35
(UTC+00:00)

Cosmos 1092 Rocket - Pass Details

Date: 29 October 2020
Orbit: 955 x 994 km, 83.0° (Epoch: 04 December)

Event Time Altitude Azimuth Distance (km) Brightness Sun altitude
Rises 11:58:15 0° 197° (SSW) 3,622 6.9 -18.2°
Reaches altitude 10° 12:00:46 10° 201° (SSW) 2,684 6.1 -17.7°
Maximum altitude 12:06:47 56° 279° (W) 1,139 4.0 -16.5°
Drops below altitude 10° 12:12:53 10° 357° (N) 2,723 6.2 -15.2°
Sets 12:15:29 0° 2° (N) 3,680 7.0 -14.7°
